EW7966 Weather Reports


time (UTC)temp
C
wind
direction
speed
KPH
gust
KPH
rain 1hr
cm
rain 24hr
cm
rain mn
cm
humidity
%
barometer
mb
20260903234502 28 202 9.7 32.2 0.00 0.00 0.00 19 998.9
20260903234004 28 145 19.3 32.2 0.00 0.00 0.00 21 1014.9
20260903233503 28 135 19.3 25.7 0.00 0.00 0.00 21 1015.0
20260903233006 28 166 16.1 25.7 0.00 0.00 0.00 19 1015.0
20260903233002 28 166 16.1 25.7 0.00 0.00 0.00 19 999.1
20260903232005 28 131 14.5 22.5 0.00 0.00 0.00 20 1015.0
20260903231502 28 126 12.9 22.5 0.00 0.00 0.00 20 999.1
20260903231006 28 131 12.9 22.5 0.00 0.00 0.00 20 1015.1
20260903230504 28 130 14.5 27.4 0.00 0.00 0.00 19 1015.0
20260903230006 29 137 16.1 27.4 0.00 0.00 0.00 19 999.1
20260903225504 28 150 17.7 22.5 0.00 0.00 0.00 19 1015.1
20260903225006 28 120 11.3 24.1 0.00 0.00 0.00 19 1015.2
20260903224504 28 149 12.9 24.1 0.00 0.00 0.00 18 1015.2
20260903224502 28 149 11.3 24.1 0.00 0.00 0.00 18 999.2
20260903224005 28 171 14.5 25.7 0.00 0.00 0.00 19 1015.4
20260903223503 28 121 16.1 25.7 0.00 0.00 0.00 18 1015.3
20260903223005 28 143 19.3 27.4 0.00 0.00 0.00 18 1015.3
20260903223003 28 143 19.3 27.4 0.00 0.00 0.00 18 999.3
20260903222503 28 133 20.9 30.6 0.00 0.00 0.00 20 1015.3
20260903222006 28 142 22.5 30.6 0.00 0.00 0.00 20 1015.4
20260903221504 28 156 20.9 33.8 0.00 0.00 0.00 20 1015.4
20260903221502 28 156 20.9 33.8 0.00 0.00 0.00 20 999.4
20260903221005 28 122 16.1 33.8 0.00 0.00 0.00 21 1015.5
20260903220505 28 106 16.1 30.6 0.00 0.00 0.00 22 1015.5
20260903220006 28 121 19.3 25.7 0.00 0.00 0.00 22 1015.6
20260903220002 28 121 19.3 25.7 0.00 0.00 0.00 22 999.6
20260903215504 28 122 16.1 25.7 0.00 0.00 0.00 20 1015.7
20260903215004 28 121 8.0 20.9 0.00 0.00 0.00 22 1015.7
20260903214502 28 69 12.9 24.1 0.00 0.00 0.00 21 999.8
20260903214005 28 95 14.5 24.1 0.00 0.00 0.00 21 1015.9
20260903213503 28 158 19.3 25.7 0.00 0.00 0.00 21 1015.9
20260903213005 28 133 9.7 17.7 0.00 0.00 0.00 22 1000.0
20260903212006 27 107 6.4 24.1 0.00 0.00 0.00 21 1016.0
20260903211504 28 117 11.3 24.1 0.00 0.00 0.00 21 1016.1
20260903211502 28 117 11.3 24.1 0.00 0.00 0.00 21 1000.2
20260903211004 28 101 16.1 20.9 0.00 0.00 0.00 23 1016.2
20260903210504 28 191 11.3 32.2 0.00 0.00 0.00 21 1016.2
20260903210006 28 138 14.5 32.2 0.00 0.00 0.00 22 1016.3
20260903210002 28 138 14.5 32.2 0.00 0.00 0.00 22 1000.3
20260903205504 28 115 12.9 22.5 0.00 0.00 0.00 23 1016.4
20260903204503 27 138 9.7 27.4 0.00 0.00 0.00 24 1016.5
20260903204005 28 94 20.9 27.4 0.00 0.00 0.00 21 1016.5
20260903203004 28 154 12.9 22.5 0.00 0.00 0.00 22 1000.8
20260903202504 28 145 17.7 22.5 0.00 0.00 0.00 23 1016.6
20260903202006 27 161 14.5 25.7 0.00 0.00 0.00 23 1016.6
20260903201504 27 151 16.1 25.7 0.00 0.00 0.00 21 1016.7
20260903200504 27 135 16.1 29.0 0.00 0.00 0.00 23 1016.7
20260903200008 27 124 22.5 29.0 0.00 0.00 0.00 23 1001.1
20260903195005 27 144 14.5 27.4 0.00 0.00 0.00 25 1016.9
20260903194504 27 97 16.1 27.4 0.00 0.00 0.00 25 1016.9
20260903194502 27 97 16.1 27.4 0.00 0.00 0.00 25 1001.3
20260903194005 27 111 17.7 27.4 0.00 0.00 0.00 24 1016.9
20260903193504 27 159 8.0 29.0 0.00 0.00 0.00 24 1017.0
20260903193005 27 140 17.7 27.4 0.00 0.00 0.00 24 1017.1
20260903193002 27 140 17.7 27.4 0.00 0.00 0.00 24 1001.5
20260903192503 27 128 19.3 25.7 0.00 0.00 0.00 24 1017.2
20260903192006 27 190 12.9 24.1 0.00 0.00 0.00 25 1017.2
20260903191503 27 144 11.3 24.1 0.00 0.00 0.00 24 1017.3
20260903191004 27 116 16.1 29.0 0.00 0.00 0.00 25 1017.3
20260903190002 27 180 12.9 25.7 0.00 0.00 0.00 22 1001.8
20260903185504 27 205 11.3 17.7 0.00 0.00 0.00 21 1017.5
20260903185005 27 205 8.0 19.3 0.00 0.00 0.00 22 1017.4
20260903184502 27 231 4.8 19.3 0.00 0.00 0.00 22 1002.0
20260903184006 27 254 8.0 17.7 0.00 0.00 0.00 24 1017.7
20260903183505 27 266 6.4 17.7 0.00 0.00 0.00 24 1017.8
20260903183007 27 211 9.7 19.3 0.00 0.00 0.00 24 1017.8
20260903183003 27 211 8.0 19.3 0.00 0.00 0.00 24 1002.2
20260903182507 27 239 8.0 19.3 0.00 0.00 0.00 22 1018.0
20260903182005 26 232 6.4 17.7 0.00 0.00 0.00 25 1018.0
20260903181503 26 294 6.4 22.5 0.00 0.00 0.00 24 1018.0
20260903180504 26 222 4.8 14.5 0.00 0.00 0.00 25 1018.2
20260903180007 26 155 9.7 16.1 0.00 0.00 0.00 24 1018.3
20260903180003 26 155 9.7 16.1 0.00 0.00 0.00 24 1002.7
20260903175503 26 212 4.8 20.9 0.00 0.00 0.00 26 1018.3
20260903175005 26 218 8.0 20.9 0.00 0.00 0.00 24 1018.4
20260903174506 26 241 9.7 20.9 0.00 0.00 0.00 25 1018.4
20260903174006 26 309 6.4 11.3 0.00 0.00 0.00 25 1018.4
20260903173504 26 210 8.0 16.1 0.00 0.00 0.00 25 1018.5
20260903173001 26 280 3.2 22.5 0.00 0.00 0.00 26 1002.8
20260903172504 26 258 12.9 29.0 0.00 0.00 0.00 25 1018.6
20260903172005 26 254 6.4 29.0 0.00 0.00 0.00 26 1018.5
20260903171504 26 306 9.7 17.7 0.00 0.00 0.00 26 1002.8
20260903171005 26 227 6.4 19.3 0.00 0.00 0.00 26 1018.5
20260903170504 26 311 6.4 12.9 0.00 0.00 0.00 26 1018.5
20260903170006 25 276 4.8 20.9 0.00 0.00 0.00 26 1018.5
20260903170002 25 276 3.2 20.9 0.00 0.00 0.00 26 1002.9
20260903164502 25 315 6.4 16.1 0.00 0.00 0.00 26 1002.9
20260903163006 25 269 6.4 19.3 0.00 0.00 0.00 28 1018.4
20260903163001 25 269 6.4 19.3 0.00 0.00 0.00 28 1002.8
20260903162504 25 307 8.0 19.3 0.00 0.00 0.00 26 1018.3
20260903161504 25 260 6.4 22.5 0.00 0.00 0.00 29 1018.3
20260903161502 25 260 4.8 22.5 0.00 0.00 0.00 29 1002.7
20260903161004 25 289 9.7 19.3 0.00 0.00 0.00 27 1018.3
20260903160504 24 313 3.2 19.3 0.00 0.00 0.00 27 1018.4
20260903160008 24 250 8.0 19.3 0.00 0.00 0.00 29 1002.8
20260903155005 24 280 6.4 20.9 0.00 0.00 0.00 31 1018.4
20260903154602 24 269 6.4 20.9 0.00 0.00 0.00 30 1002.9
20260903153505 23 253 12.9 20.9 0.00 0.00 0.00 32 1018.4
20260903153101 23 207 8.0 16.1 0.00 0.00 0.00 31 1002.9
20260903153001 23 266 6.4 16.1 0.00 0.00 0.00 32 1018.4
20260903152504 23 247 9.7 16.1 0.00 0.00 0.00 31 1018.4
20260903152007 23 313 8.0 19.3 0.00 0.00 0.00 33 1018.4
20260903151508 23 262 9.7 19.3 0.00 0.00 0.00 32 1018.5
20260903151505 23 262 9.7 19.3 0.00 0.00 0.00 32 1003.0
20260903151006 23 313 8.0 17.7 0.00 0.00 0.00 34 1018.5
20260903150505 23 272 11.3 16.1 0.00 0.00 0.00 33 1018.5
20260903150014 22 288 3.2 17.7 0.00 0.00 0.00 36 1003.2
20260903150008 22 288 4.8 17.7 0.00 0.00 0.00 36 1018.6
20260903145007 22 261 8.0 16.1 0.00 0.00 0.00 34 1018.6
20260903144507 22 261 4.8 14.5 0.00 0.00 0.00 35 1003.2
20260903144006 22 270 6.4 14.5 0.00 0.00 0.00 35 1018.6
20260903143506 22 250 8.0 19.3 0.00 0.00 0.00 34 1018.5
20260903143014 22 247 4.8 19.3 0.00 0.00 0.00 34 1003.2
20260903143007 22 247 6.4 19.3 0.00 0.00 0.00 34 1018.5
20260903142507 21 281 6.4 14.5 0.00 0.00 0.00 35 1018.6
20260903142000 21 211 8.0 14.5 0.00 0.00 0.00 36 1018.5
20260903141507 21 220 4.8 11.3 0.00 0.00 0.00 37 1003.3
20260903140506 20 252 4.8 17.7 0.00 0.00 0.00 37 1018.5
20260903140008 20 257 3.2 11.3 0.00 0.00 0.00 42 1018.5
20260903140004 20 257 1.6 11.3 0.00 0.00 0.00 42 1003.4
20260903135507 20 203 4.8 11.3 0.00 0.00 0.00 40 1018.4
20260903135008 20 188 1.6 8.0 0.00 0.00 0.00 42 1018.5
20260903134506 19 188 4.8 8.0 0.00 0.00 0.00 40 1018.4
20260903134504 19 188 4.8 8.0 0.00 0.00 0.00 40 1003.3
20260903134007 19 188 4.8 6.4 0.00 0.00 0.00 41 1018.3
20260903133506 18 218 3.2 9.7 0.00 0.00 0.00 42 1018.2
20260903133007 18 187 4.8 12.9 0.00 0.00 0.00 41 1018.1
20260903133004 18 187 4.8 12.9 0.00 0.00 0.00 41 1003.0
20260903132007 17 207 6.4 11.3 0.00 0.00 0.00 45 1018.0
20260903131503 17 236 3.2 11.3 0.00 0.00 0.00 45 1002.9
20260903131007 16 184 1.6 8.0 0.00 0.00 0.00 47 1018.0
20260903130505 16 194 6.4 8.0 0.00 0.00 0.00 46 1018.0
20260903130010 16 197 4.8 8.0 0.00 0.00 0.00 47 1018.0
20260903130007 16 197 3.2 8.0 0.00 0.00 0.00 47 1002.9
20260903125506 16 245 3.2 9.7 0.00 0.00 0.00 46 1017.9
20260903125007 16 205 3.2 9.7 0.00 0.00 0.00 45 1017.7
20260903124506 16 173 3.2 6.4 0.00 0.00 0.00 43 1017.8
20260903124504 16 173 1.6 6.4 0.00 0.00 0.00 43 1002.7
20260903124007 17 173 3.2 6.4 0.00 0.00 0.00 42 1017.8
20260903123506 17 173 3.2 6.4 0.00 0.00 0.00 40 1017.8
20260903123007 17 173 1.6 9.7 0.00 0.00 0.00 40 1017.6
20260903123005 17 173 1.6 9.7 0.00 0.00 0.00 40 1002.6
20260903122006 17 186 8.0 12.9 0.00 0.00 0.00 42 1017.5
20260903121503 16 160 9.7 12.9 0.00 0.00 0.00 43 1002.5
20260903121007 16 173 9.7 14.5 0.00 0.00 0.00 44 1017.4
20260903120506 16 149 9.7 16.1 0.00 0.00 0.00 46 1017.3
20260903120011 15 157 9.7 14.5 0.00 0.00 0.00 49 1017.3
20260903120007 15 157 9.7 14.5 0.00 0.00 0.00 49 1002.4
20260903115505 14 150 6.4 14.5 0.00 0.00 0.00 51 1017.3
20260903115009 13 188 1.6 6.4 0.00 0.00 0.00 54 1017.2
20260903114505 14 188 1.6 6.4 0.00 0.00 0.00 53 1017.2
20260903114010 14 188 4.8 8.0 0.00 0.00 0.00 53 1017.2
20260903113505 14 188 4.8 11.3 0.00 0.00 0.00 54 1017.3
20260903113009 13 161 6.4 12.9 0.00 0.00 0.00 54 1017.3
20260903113007 13 161 6.4 12.9 0.00 0.00 0.00 54 1002.3
20260903112006 13 142 9.7 14.5 0.00 0.00 0.00 58 1017.3
20260903111505 13 138 9.7 14.5 0.00 0.00 0.00 59 1017.4
20260903111503 13 138 9.7 14.5 0.00 0.00 0.00 59 1002.4
20260903111007 13 128 1.6 3.2 0.00 0.00 0.00 59 1017.3
20260903110506 12 128 0.0 4.8 0.00 0.00 0.00 61 1017.2
20260903110007 12 128 1.6 4.8 0.00 0.00 0.00 63 1017.1
20260903110005 12 128 1.6 4.8 0.00 0.00 0.00 63 1002.1
20260903105505 12 128 1.6 6.4 0.00 0.00 0.00 64 1017.1
20260903104505 12 128 4.8 6.4 0.00 0.00 0.00 66 1017.1
20260903103505 12 128 3.2 4.8 0.00 0.00 0.00 70 1017.0
20260903103007 12 128 0.0 3.2 0.00 0.00 0.00 69 1017.0
20260903103004 12 128 0.0 3.2 0.00 0.00 0.00 69 1001.9
20260903102506 12 128 0.0 3.2 0.00 0.00 0.00 68 1017.1
20260903102006 13 128 0.0 6.4 0.00 0.00 0.00 67 1017.2
20260903101507 13 128 4.8 6.4 0.00 0.00 0.00 66 1017.2
20260903101505 13 128 4.8 6.4 0.00 0.00 0.00 66 1002.0
20260903101007 13 128 4.8 6.4 0.00 0.00 0.00 65 1017.3
20260903100506 14 240 0.0 4.8 0.00 0.00 0.00 64 1017.2
20260903100006 13 240 3.2 6.4 0.00 0.00 0.00 66 1017.1
20260903095505 13 240 4.8 6.4 0.00 0.00 0.00 67 1017.0
20260903095006 13 240 3.2 8.0 0.00 0.00 0.00 68 1017.0
20260903094505 13 207 1.6 12.9 0.00 0.00 0.00 68 1017.0
20260903094503 13 207 0.0 12.9 0.00 0.00 0.00 68 1001.8
20260903094006 13 207 6.4 12.9 0.00 0.00 0.00 69 1017.1
20260903093505 12 189 4.8 8.0 0.00 0.00 0.00 70 1017.2
20260903093006 12 189 4.8 9.7 0.00 0.00 0.00 70 1002.0
20260903092505 12 198 6.4 11.3 0.00 0.00 0.00 70 1017.2
20260903092007 12 229 4.8 11.3 0.00 0.00 0.00 69 1017.2
20260903091506 13 213 6.4 9.7 0.00 0.00 0.00 70 1017.1
20260903091005 12 213 6.4 11.3 0.00 0.00 0.00 69 1017.1
20260903090505 13 199 3.2 9.7 0.00 0.00 0.00 69 1017.3
20260903090010 12 199 4.8 9.7 0.00 0.00 0.00 71 1001.8
20260903085506 12 199 4.8 6.4 0.00 0.00 0.00 70 1017.3
20260903085005 12 199 0.0 3.2 0.00 0.00 0.00 69 1017.1
20260903084506 13 199 3.2 3.2 0.00 0.00 0.00 69 1016.9
20260903084503 13 199 1.6 3.2 0.00 0.00 0.00 69 1001.5
20260903084007 13 199 1.6 3.2 0.00 0.00 0.00 69 1017.0
20260903083505 13 199 1.6 4.8 0.00 0.00 0.00 69 1017.1
20260903083005 13 199 1.6 6.4 0.00 0.00 0.00 69 1001.7
20260903082505 13 199 4.8 6.4 0.00 0.00 0.00 70 1017.1
20260903082007 12 199 4.8 6.4 0.00 0.00 0.00 71 1017.1
20260903081504 12 199 4.8 6.4 0.00 0.00 0.00 71 1001.9
20260903081006 12 199 4.8 6.4 0.00 0.00 0.00 70 1017.3
20260903080505 13 199 3.2 6.4 0.00 0.00 0.00 69 1017.4
20260903080008 13 199 3.2 6.4 0.00 0.00 0.00 69 1017.3
20260903080004 13 199 1.6 6.4 0.00 0.00 0.00 69 1001.9
20260903075505 13 199 4.8 6.4 0.00 0.00 0.00 69 1017.3
20260903075006 13 199 4.8 6.4 0.00 0.00 0.00 69 1017.4
20260903074505 13 199 4.8 8.0 0.00 0.00 0.00 68 1017.6
20260903074503 13 199 3.2 8.0 0.00 0.00 0.00 68 1002.2
20260903074005 13 199 3.2 6.4 0.00 0.00 0.00 68 1017.6
20260903073505 13 199 3.2 8.0 0.00 0.00 0.00 68 1017.5
20260903073006 13 199 6.4 8.0 0.00 0.00 0.00 67 1017.5
20260903072505 13 199 4.8 8.0 0.00 0.00 0.00 67 1017.6
20260903072006 13 199 6.4 8.0 0.00 0.00 0.00 67 1017.6
20260903071509 13 205 3.2 8.0 0.00 0.00 0.00 67 1002.2
20260903071505 13 205 4.8 8.0 0.00 0.00 0.00 67 1017.6
20260903071006 13 220 4.8 8.0 0.00 0.00 0.00 67 1017.6
20260903070505 14 211 4.8 6.4 0.00 0.00 0.00 66 1017.6
20260903070008 14 211 3.2 4.8 0.00 0.00 0.00 66 1017.6
20260903070005 14 211 3.2 4.8 0.00 0.00 0.00 66 1002.2
20260903065505 14 211 0.0 4.8 0.00 0.00 0.00 67 1017.6
20260903065006 14 211 1.6 6.4 0.00 0.00 0.00 67 1017.6
20260903064505 14 211 4.8 6.4 0.00 0.00 0.00 66 1017.6
20260903064503 14 211 4.8 6.4 0.00 0.00 0.00 66 1002.1
20260903064006 14 211 3.2 9.7 0.00 0.00 0.00 67 1017.7
20260903063506 14 222 6.4 9.7 0.00 0.00 0.00 68 1017.8
20260903063006 13 223 6.4 11.3 0.00 0.00 0.00 69 1018.0
20260903063003 13 223 4.8 11.3 0.00 0.00 0.00 69 1002.5
20260903062505 13 222 4.8 8.0 0.00 0.00 0.00 70 1017.9
20260903062006 13 223 4.8 8.0 0.00 0.00 0.00 70 1017.8
20260903061507 13 223 4.8 8.0 0.00 0.00 0.00 69 1002.3
20260903061007 13 103 3.2 11.3 0.00 0.00 0.00 67 1017.5
20260903060506 13 103 6.4 12.9 0.00 0.00 0.00 67 1017.5
20260903060008 14 82 4.8 11.3 0.00 0.00 0.00 65 1002.1
20260903055505 14 294 4.8 8.0 0.00 0.00 0.00 64 1017.7
20260903055005 15 294 6.4 8.0 0.00 0.00 0.00 64 1017.8
20260903054502 15 294 4.8 8.0 0.00 0.00 0.00 63 1002.3
20260903053504 15 294 1.6 4.8 0.00 0.00 0.00 62 1017.6
20260903053005 15 294 1.6 4.8 0.00 0.00 0.00 62 1017.6
20260903053003 15 294 1.6 4.8 0.00 0.00 0.00 62 1002.1
20260903052006 15 294 1.6 3.2 0.00 0.00 0.00 62 1017.7
20260903051505 15 294 0.0 3.2 0.00 0.00 0.00 62 1017.6
20260903051502 15 294 0.0 3.2 0.00 0.00 0.00 62 1002.0
20260903051006 15 294 0.0 3.2 0.00 0.00 0.00 61 1017.6
20260903050500 16 294 1.6 3.2 0.00 0.00 0.00 59 1017.6
20260903050006 16 294 0.0 1.6 0.00 0.00 0.00 60 1017.6
20260903045506 16 294 0.0 1.6 0.00 0.00 0.00 59 1017.8
20260903045004 16 294 0.0 4.8 0.00 0.00 0.00 59 1017.9
20260903044504 16 294 0.0 4.8 0.00 0.00 0.00 59 1018.0
20260903044005 16 294 1.6 6.4 0.00 0.00 0.00 59 1018.0
20260903043006 16 294 8.0 12.9 0.00 0.00 0.00 59 1002.5
20260903042504 16 310 4.8 6.4 0.00 0.00 0.00 59 1017.9
20260903042006 17 9 1.6 8.0 0.00 0.00 0.00 58 1017.9
20260903041558 17 5 0.0 8.0 0.00 0.00 0.00 57 1002.1
20260903041005 17 23 4.8 8.0 0.00 0.00 0.00 56 1017.7
20260903040504 18 23 4.8 8.0 0.00 0.00 0.00 54 1017.6
20260903040004 18 5 1.6 8.0 0.00 0.00 0.00 53 1001.8
20260903034504 20 343 1.6 8.0 0.00 0.00 0.00 48 1017.6
20260903034502 20 343 1.6 8.0 0.00 0.00 0.00 48 1001.9
20260903034006 20 332 3.2 17.7 0.00 0.00 0.00 47 1017.8
20260903033503 20 5 1.6 19.3 0.00 0.00 0.00 46 1017.8
20260903033004 20 5 4.8 22.5 0.00 0.00 0.00 45 1017.7
20260903033002 20 5 4.8 22.5 0.00 0.00 0.00 45 1001.9
20260903032504 20 319 9.7 22.5 0.00 0.00 0.00 45 1017.5
20260903032005 21 311 12.9 25.7 0.00 0.00 0.00 43 1017.4
20260903031505 21 329 9.7 32.2 0.00 0.00 0.00 41 1001.5
20260903031008 22 301 19.3 32.2 0.00 0.00 0.00 37 1017.0
20260903030504 22 290 16.1 22.5 0.00 0.00 0.00 35 1016.9
20260903030003 22 213 1.6 4.8 0.00 0.00 0.00 32 1001.1
20260903025504 23 213 1.6 8.0 0.00 0.00 0.00 31 1016.7
20260903025005 23 213 4.8 8.0 0.00 0.00 0.00 30 1016.6
20260903024504 23 213 1.6 4.8 0.00 0.00 0.00 30 1016.5
20260903024005 23 213 3.2 6.4 0.00 0.00 0.00 29 1016.4
20260903023504 24 213 3.2 8.0 0.00 0.00 0.00 28 1016.3
20260903023003 24 213 1.6 11.3 0.00 0.00 0.00 28 1000.5
20260903022005 24 205 8.0 12.9 0.00 0.00 0.00 28 1016.1
20260903021503 23 302 4.8 12.9 0.00 0.00 0.00 29 1000.2
20260903021006 23 204 6.4 11.3 0.00 0.00 0.00 31 1015.9
20260903020007 23 273 3.2 6.4 0.00 0.00 0.00 32 1015.9
20260903020003 23 273 3.2 6.4 0.00 0.00 0.00 32 1000.2
20260903015504 23 302 3.2 9.7 0.00 0.00 0.00 32 1015.8
20260903015006 23 201 6.4 12.9 0.00 0.00 0.00 30 1015.6
20260903014504 22 192 6.4 12.9 0.00 0.00 0.00 32 1015.4
20260903014502 22 192 6.4 12.9 0.00 0.00 0.00 32 999.6
20260903014004 21 168 6.4 11.3 0.00 0.00 0.00 34 1015.3
20260903013505 22 129 0.0 4.8 0.00 0.00 0.00 37 1015.4
20260903013006 22 129 3.2 6.4 0.00 0.00 0.00 33 1015.4
20260903013002 22 129 1.6 6.4 0.00 0.00 0.00 33 999.5
20260903012504 22 129 1.6 6.4 0.00 0.00 0.00 32 1015.3
20260903012006 23 129 0.0 1.6 0.00 0.00 0.00 34 1015.3
20260903011503 23 129 0.0 3.2 0.00 0.00 0.00 35 999.4
20260903011007 23 129 1.6 6.4 0.00 0.00 0.00 32 1015.3
20260903010504 23 129 4.8 8.0 0.00 0.00 0.00 33 1015.3
20260903010007 24 129 6.4 12.9 0.00 0.00 0.00 32 1015.3
20260903010003 24 129 4.8 12.9 0.00 0.00 0.00 32 999.4
20260903005504 24 129 4.8 19.3 0.00 0.00 0.00 32 1015.4
20260903005006 25 120 11.3 22.5 0.00 0.00 0.00 31 1015.4
20260903004502 25 119 17.7 22.5 0.00 0.00 0.00 30 999.4
20260903004006 25 157 11.3 20.9 0.00 0.00 0.00 31 1015.2
20260903003505 25 136 12.9 24.1 0.00 0.00 0.00 31 1015.2
20260903003005 26 104 14.5 24.1 0.00 0.00 0.00 30 1015.2
20260903003002 26 104 14.5 24.1 0.00 0.00 0.00 30 999.3
20260903002504 26 92 16.1 22.5 0.00 0.00 0.00 30 1015.2
20260903002005 26 93 16.1 27.4 0.00 0.00 0.00 30 1015.2
20260903001505 26 106 20.9 27.4 0.00 0.00 0.00 30 1015.2
20260903001502 26 106 19.3 27.4 0.00 0.00 0.00 30 999.3
20260903001001 26 105 17.7 27.4 0.00 0.00 0.00 29 1015.2
20260903000505 26 103 19.3 27.4 0.00 0.00 0.00 29 1015.3
20260903000007 26 104 17.7 29.0 0.00 0.00 0.00 30 1015.3
20260903000004 26 104 16.1 29.0 0.00 0.00 0.00 30 999.4